Location: Albligen
(46.8523°N, 7.3181°E)
Time: 08:17:36
(UTC+00:00)

Daily predictions for brighter satellites

Satellite Brightness Start Highest point End
(mag) Time Altitude Azimuth Time Altitude Azimuth Time Altitude Azimuth
CZ-4C R/B 3.0 17:03:45 10° NW 17:10:53 78° NE 17:19:04 10° SE
SKYMED 2 4.1 17:10:03 10° NNE 17:14:07 38° E 17:18:10 10° SSE
GP-B 4.0 17:11:05 10° N 17:15:28 56° W 17:19:47 10° SSW
Unknown 4.0 17:12:58 10° SW 17:16:57 47° SE 17:20:56 10° ENE
ATLAS 5 CENTAUR R/B 1.8 17:14:28 10° SSW 17:18:34 51° ESE 17:23:08 10° NE
Unknown 4.0 17:14:40 10° SW 17:18:40 49° SE 17:22:41 10° ENE
Unknown 4.0 17:16:15 10° SW 17:20:15 50° SE 17:24:17 10° ENE
YAOGAN 1 3.1 17:17:07 10° SE 17:21:07 38° ENE 17:25:09 10° N
Unknown 3.9 17:17:57 10° SW 17:21:58 52° SE 17:26:00 10° ENE
Unknown 4.4 17:24:05 10° NW 17:26:46 25° N 17:29:28 10° ENE
SL-4 R/B 1.8 17:23:59 10° WNW 17:27:56 79° NNE 17:31:34 10° ESE
Gbstr 26 Del rocket 4.4 17:22:19 10° WNW 17:27:59 55° N 17:34:51 10° ENE
Unknown 3.7 17:24:29 10° SW 17:28:32 64° SE 17:32:35 10° ENE
Unknown 3.8 17:24:31 10° SW 17:28:34 58° SE 17:32:39 10° ENE
Unknown 3.8 17:26:08 10° SW 17:30:13 59° SE 17:34:17 10° ENE
Cosmos 2263 Rocket 3.5 17:26:23 10° SW 17:31:44 41° NW 17:37:05 10° NNE
Unknown 3.7 17:27:49 10° SW 17:31:54 61° SE 17:35:55 10° ENE
EO 1 Delta rocket 4.4 17:28:33 10° SE 17:32:47 36° ENE 17:37:06 10° N
Okean-O 3.5 17:28:43 10° S 17:33:03 56° W 17:37:26 10° NNW
CSL-04 Rocket 3.8 17:27:52 10° SSE 17:33:18 59° ENE 17:38:43 10° N
Unknown 3.7 17:29:28 10° SW 17:33:32 63° SE 17:37:30 11° ENE
CZ-2D R/B 4.1 17:31:48 10° SE 17:35:08 28° ENE 17:38:29 10° N
Unknown 3.7 17:31:04 10° SW 17:35:10 64° SE 17:39:04 11° ENE
Cosmos 1726 Rocket 3.8 17:31:56 10° SSE 17:36:09 46° E 17:40:22 10° NNE
Cosmos 2239 Rocket 4.4 17:31:14 10° N 17:37:24 67° E 17:43:29 10° SSE
Cosmos 1271 Rocket 2.8 17:33:52 10° N 17:37:47 60° ENE 17:41:43 10° SSE
Unknown 3.6 17:34:27 10° SW 17:38:34 68° SE 17:42:20 12° ENE
Cosmos 724 4.4 17:33:38 10° SSW 17:39:48 85° ESE 17:45:52 10° NE
Starlink (trailer) 3.6 17:36:04 10° SW 17:40:11 69° SSE 17:43:54 13° ENE
BREEZE M DEB (TANK) 1.7 17:38:35 10° WNW 17:40:46 73° NNE 17:44:18 14° ESE
Unknown 3.6 17:37:45 10° SW 17:41:52 71° SE 17:45:31 13° ENE
Cosmos 1605 Rocket 4.5 17:37:16 10° N 17:43:00 37° ENE 17:48:37 10° SE
Unknown 3.5 17:39:08 10° WSW 17:43:11 88° NNW 17:46:49 13° ENE
Cosmos 1821 Rocket 3.9 17:37:03 10° N 17:43:11 82° E 17:49:20 10° S
Cosmos 2058 Rocket 3.6 17:39:22 10° SSE 17:43:22 36° E 17:47:22 10° NNE
Cosmos 1953 2.3 17:39:20 10° S 17:43:23 81° E 17:47:28 10° N
Unknown 3.6 17:39:22 10° SW 17:43:29 73° SSE 17:47:05 13° ENE
Lacrosse 5 3.2 17:39:52 10° NW 17:44:11 27° N 17:47:59 12° ENE
Shenzhou-11 Module 3.6 17:43:03 10° SSW 17:45:11 20° SSE 17:46:27 15° SE
Cosmos 1833 Rocket 3.9 17:42:10 10° N 17:46:40 24° NE 17:49:44 16° E
Cosmos 1758 4.3 17:44:27 10° SSW 17:48:19 51° WNW 17:52:13 10° N
Cosmos 1703 3.9 17:46:27 10° N 17:50:06 34° ENE 17:53:42 10° SE
Unknown 3.6 17:45:59 10° SW 17:50:07 80° SSE 17:53:28 15° ENE
Nadezhda 3 Rocket 4.0 17:43:55 10° S 17:50:11 89° E 17:56:34 10° N
Unknown 3.6 17:46:03 10° SW 17:50:12 81° SSE 17:53:32 15° ENE
Unknown 3.6 17:46:51 10° SW 17:50:59 81° SSE 17:54:17 16° ENE
COBE Rocket 4.2 17:46:38 10° N 17:51:50 76° WNW 17:56:57 10° SSW
Cosmos 2228 2.9 17:48:54 10° S 17:53:16 75° E 17:57:38 10° NNE
Cosmos 1626 4.0 17:51:10 10° NNW 17:54:35 35° W 17:57:59 10° SSW
Unknown 3.6 17:50:59 10° WSW 17:55:07 86° SSE 17:58:16 17° ENE
Unknown 3.6 17:51:00 10° WSW 17:55:08 86° SSE 17:58:17 17° ENE
Unknown 3.6 17:52:44 10° WSW 17:56:53 89° N 17:59:59 17° ENE
COSMOS 2406 3.5 17:52:01 10° NNW 17:57:39 50° ENE 18:02:53 12° SE
Cosmos 1535 Rocket 4.4 17:51:31 10° N 17:57:46 70° E 18:03:52 10° SSE
Envisat 3.8 17:54:15 10° S 17:59:14 55° W 18:04:15 10° NNW
Cosmos 1934 Rocket 4.0 17:53:32 10° N 17:59:52 71° E 18:06:12 10° SSE
Unknown 3.6 17:56:02 10° WSW 18:00:11 86° NNW 18:03:10 19° ENE
Unknown 3.6 17:56:41 10° WSW 18:00:50 88° NNW 18:03:45 19° ENE
Unknown 3.6 17:57:38 10° WSW 18:01:48 87° NNW 18:04:41 19° ENE
Cosmos 2082 Rocket 3.5 17:57:30 10° N 18:01:59 23° NE 18:04:05 19° ENE
COSMO-SKYMED 1 2.9 17:57:59 10° N 18:02:19 69° WNW 18:06:38 10° SSW
Cosmos 1726 2.2 17:59:32 10° S 18:03:04 48° E 18:06:37 10° NNE
Unknown 3.6 18:00:51 10° WSW 18:05:00 85° NNW 18:07:45 21° ENE
Meteor 1-11 4.4 17:59:26 10° N 18:05:04 53° ENE 18:10:42 10° SSE
Cosmos 1939 Rocket 2.9 18:01:19 10° SSE 18:05:10 54° ENE 18:09:07 10° N
Cosmos 921 Rocket 3.1 18:01:10 10° S 18:05:36 62° ESE 18:10:03 10° NNE
Cosmos 292 Rocket 4.2 18:01:41 10° S 18:06:04 39° ESE 18:10:29 10° NE
Unknown 3.6 18:04:16 10° WSW 18:08:25 80° NNW 18:11:03 22° ENE
Cosmos 482 Debris 4.1 18:03:25 10° WNW 18:08:35 85° NNE 18:10:07 31° ESE
Unknown 3.7 18:05:56 10° WSW 18:10:04 79° NNW 18:12:38 23° ENE
Unknown 3.7 18:07:38 10° WSW 18:11:48 77° NNW 18:14:17 23° ENE
Cosmos 1356 3.4 18:09:57 10° S 18:13:19 56° E 18:16:42 10° NNE
Unknown 3.7 18:09:18 10° WSW 18:13:26 75° NNW 18:15:52 24° NE
Lacrosse 5 rocket 1.4 18:11:33 10° NW 18:15:19 67° SW 18:17:43 22° SE
Cosmos 1953 Rocket 4.2 18:11:58 10° NNW 18:16:17 58° W 18:20:33 10° S
Unknown 3.7 18:12:36 10° WSW 18:16:45 72° NNW 18:19:02 25° NE
USA 116 3.6 18:15:14 10° N 18:18:18 62° WNW 18:21:29 10° SSW
Unknown 3.8 18:14:19 10° WSW 18:18:26 70° NNW 18:20:40 26° NE
Unknown 3.8 18:15:58 10° WSW 18:20:06 69° NNW 18:22:15 27° NE
Cosmos 2084 3.5 18:16:02 10° SW 18:20:36 87° NW 18:24:06 16° NE
Unknown 3.8 18:17:34 10° WSW 18:21:42 69° NNW 18:23:47 28° NE
CZ-4 R/B 3.0 18:18:22 10° SSW 18:22:14 37° W 18:26:10 10° NNW
Unknown 3.8 18:18:14 10° WSW 18:22:21 67° NNW 18:24:25 28° NE
Unknown 3.8 18:20:45 10° WSW 18:24:53 69° NNW 18:26:49 30° NE
Meteor 1-16 Rocket 4.3 18:21:15 10° SSW 18:26:51 79° W 18:32:21 10° N
Cosmos 1242 Rocket 2.9 18:24:03 10° NNW 18:27:43 67° W 18:31:23 10° S
Unknown 3.8 18:24:08 10° WSW 18:28:15 66° NNW 18:30:02 32° NE
Cosmos 1328 4.0 18:25:41 10° NNW 18:29:41 73° W 18:33:38 10° S
Unknown 3.9 18:25:49 10° WSW 18:29:56 65° NNW 18:31:38 33° NE
Cosmos 1844 Rocket 3.3 18:24:57 10° SW 18:30:32 59° WNW 18:36:09 10° NNE
Unknown 4.5 18:27:06 10° W 18:30:48 40° NNW 18:32:18 27° NE
ADEOS Rocket 4.0 18:24:21 10° NNE 18:31:21 35° E 18:37:59 10° SSE
Unknown 4.0 18:27:42 10° WSW 18:31:48 60° NNW 18:33:29 33° NE
Unknown 3.2 18:29:15 10° NW 18:31:23 47° NNW 18:31:23 47° NNW
Unknown 3.9 18:29:05 10° WSW 18:33:12 62° NNW 18:34:47 35° NE
Cosmos 1908 3.1 18:29:27 10° S 18:33:21 77° E 18:37:16 10° NNE
Cosmos 1153 Rocket 4.5 18:27:30 10° N 18:33:35 56° ENE 18:38:15 17° SSE
Unknown 4.0 18:30:48 10° WSW 18:34:54 61° NNW 18:36:25 35° NE
Unknown 4.0 18:34:04 10° WSW 18:38:10 59° NNW 18:39:32 37° NE
Unknown 4.0 18:35:50 10° WSW 18:39:55 58° NNW 18:41:14 38° NE
SPOT 3 Rocket 3.8 18:39:52 41° E 18:40:43 45° ENE 18:45:40 10° N
Meteor 2-10 4.1 18:36:13 10° SSW 18:41:19 75° WNW 18:46:23 10° N
Unknown 4.4 18:38:19 10° NW 18:41:23 30° N 18:41:25 30° N
Unknown 4.1 18:37:29 10° WSW 18:41:34 57° NNW 18:42:49 39° NE
Ariane Rocket 3.1 18:36:38 10° S 18:41:43 75° WSW 18:46:51 10° NNW
Unknown 4.1 18:39:12 10° W 18:43:16 56° NNW 18:44:25 40° NNE
Cosmos 2278 Rocket 2.3 18:38:29 10° S 18:43:55 49° ESE 18:46:34 28° NE
Cosmos 489 Rocket 4.4 18:39:39 10° SSW 18:45:52 86° ESE 18:52:07 10° NNE
Unknown 4.1 18:42:32 10° W 18:46:35 54° NNW 18:47:37 42° NNE
Cosmos 1844 4.4 18:41:17 10° SW 18:46:54 57° WNW 18:52:36 10° NNE
Unknown 4.2 18:44:19 10° W 18:48:22 52° NNW 18:49:19 42° NNE
USA 238 DEB 4.3 18:42:38 10° S 18:47:26 32° SE 18:47:26 32° SE
Unknown 4.3 18:44:32 10° W 18:48:35 50° NNW 18:49:33 40° NNE
USA 238 4.3 18:42:46 10° S 18:47:27 32° SE 18:47:27 32° SE
Unknown 4.3 18:46:09 10° W 18:50:12 50° NNW 18:51:05 41° NNE
Unknown 4.2 18:49:10 10° W 18:53:12 51° NNW 18:53:57 44° NNE
Unknown 4.2 18:52:32 10° W 18:56:34 49° NNW 18:57:09 45° N
USA 234 3.7 18:57:29 37° SE 18:57:29 37° SE 19:03:12 10° SSW
Unknown 4.2 18:54:16 10° W 18:58:18 48° NNW 18:58:49 45° N
H-2A R/B 2.1 18:59:39 55° ENE 18:59:44 55° ENE 19:04:59 10° N
Unknown 4.3 18:55:53 10° W 18:59:54 48° NNW 19:00:21 45° N
SJ-11-01 4.2 18:59:52 51° SSE 19:01:03 89° WSW 19:05:47 10° NNW
Cosmos 1777 Rocket 4.1 18:56:17 10° NNW 19:01:31 75° WSW 19:03:37 37° S
Unknown 4.3 18:57:36 10° W 19:01:37 47° NNW 19:02:00 45° N
ATLAS 5 CENTAUR R/B 3.5 18:59:36 10° W 19:03:28 29° NNW 19:07:08 13° NNE
SL-4 R/B 3.7 19:04:14 10° W 19:07:09 22° SW 19:07:19 22° SW
Unknown 4.5 19:04:11 10° W 19:08:06 42° NNW 19:08:10 42° NNW
Unknown 4.4 19:04:17 10° W 19:08:17 45° NNW 19:08:22 45° NNW
Unknown 4.4 19:05:57 10° W 19:09:56 44° NNW 19:09:57 44° NNW
CZ-2C R/B 3.8 19:10:55 44° NE 19:10:55 44° NE 19:15:44 10° N
Unknown 4.5 19:07:39 10° W 19:11:35 44° NNW 19:11:35 44° NNW
Gbstr 26 Del rocket 4.1 19:09:27 10° WNW 19:15:53 76° NNE 19:17:24 58° E
Cosmos 1076 Rocket 4.2 19:11:37 10° N 19:14:50 48° N 19:14:50 48° N
Cosmos 1461 4.1 19:13:25 10° NNW 19:15:58 36° NNW 19:15:58 36° NNW
SJ-6B 4.5 19:25:01 28° NNW 19:25:01 28° NNW 19:26:58 10° NNW
Lacrosse 5 2.5 19:23:02 10° NW 19:27:11 49° N 19:27:11 49° N
BREEZE-M DEB (TANK) 3.5 19:21:23 10° WSW 19:27:40 49° SW 19:27:40 49° SW
Cosmos 1833 Rocket 2.7 19:25:33 10° NNW 19:31:09 71° WSW 19:31:28 69° SW
Cosmos 1459 Rocket 3.8 19:25:37 10° N 19:31:50 88° E 19:32:13 80° SSE
Resurs 01 Rocket 3.7 19:35:40 19° N 19:35:40 19° N 19:37:02 10° N
ARGOS 3.2 19:34:28 75° NW 19:34:28 75° NW 19:39:27 10° NNW
Cosmos 1727 Rocket 4.4 19:28:30 10° SSW 19:34:36 59° WNW 19:40:42 10° N
Cosmos 1802 Rocket 3.9 19:32:40 10° N 19:38:55 81° NE 19:38:55 81° NE
Cosmos 2082 Rocket 2.5 19:40:59 10° NNW 19:45:57 65° NW 19:45:57 65° NW
Cosmos 2173 Rocket 4.2 19:45:05 10° NNW 19:51:20 68° W 19:51:41 66° WSW
SJ 16-02 4.0 19:54:05 10° N 19:54:38 13° N 19:54:38 13° N
ADEOS Rocket 4.0 20:09:31 10° N 20:17:06 58° WNW 20:24:19 10° SW
Cosmos 2278 Rocket 3.8 20:23:12 10° WSW 20:28:13 32° NW 20:28:36 31° NW
H-2A R/B 4.2 20:40:17 22° WNW 20:40:17 22° WNW 20:43:40 10° NW
